This is the latest recevied weather packets stored in our database for station/object WB9TLH-11. If no packets are shown the sender has not sent any weather packets the latest 10 day(s).
| Time | Temp. | Humidity | Pressure | Rain* | Wind** | Luminosity | Snow |
|---|---|---|---|---|---|---|---|
| 1777753259 | 12.78° C | 31% | 1018.2 hPa | 0 mm | - | - | - |
| 1777752959 | 12.78° C | 30% | 1018.2 hPa | 0 mm | - | - | - |
| 1777752659 | 12.78° C | 34% | 1018.3 hPa | 0 mm | - | - | - |
| 1777752359 | 12.78° C | 32% | 1018.3 hPa | 0 mm | - | - | - |
| 1777752059 | 13.33° C | 31% | 1018.3 hPa | 0 mm | - | - | - |
| 1777751759 | 13.89° C | 29% | 1018.3 hPa | 0 mm | - | - | - |
| 1777751459 | 13.89° C | 33% | 1018.3 hPa | 0 mm | - | - | - |
| 1777751159 | 13.89° C | 32% | 1018.4 hPa | 0 mm | - | - | - |
| 1777750859 | 13.33° C | 31% | 1018.4 hPa | 0 mm | - | - | - |
| 1777750559 | 13.33° C | 34% | 1018.4 hPa | 0 mm | - | - | - |
| 1777750259 | 12.78° C | 33% | 1018.4 hPa | 0 mm | - | - | - |
| 1777749959 | 12.22° C | 37% | 1018.4 hPa | 0 mm | - | - | - |
| 1777749659 | 12.22° C | 35% | 1018.5 hPa | 0 mm | - | - | - |
| 1777749359 | 12.78° C | 37% | 1018.6 hPa | 0 mm | - | - | - |
| 1777749059 | 12.78° C | 37% | 1018.6 hPa | 0 mm | - | - | - |
| 1777748759 | 12.78° C | 39% | 1018.6 hPa | 0 mm | - | - | - |
| 1777748459 | 12.22° C | 38% | 1018.6 hPa | 0 mm | - | - | - |
| 1777748159 | 11.67° C | 38% | 1018.8 hPa | 0 mm | - | - | - |
| 1777747859 | 11.67° C | 40% | 1018.8 hPa | 0 mm | - | - | - |
| 1777747559 | 11.67° C | 44% | 1018.8 hPa | 0 mm | - | - | - |
| 1777747259 | 11.67° C | 43% | 1018.9 hPa | 0 mm | - | - | - |
| 1777746959 | 11.67° C | 43% | 1018.9 hPa | 0 mm | - | - | - |
| 1777746659 | 12.22° C | 42% | 1018.9 hPa | 0 mm | - | - | - |
| 1777746359 | 12.22° C | 43% | 1018.9 hPa | 0 mm | - | - | - |
| 1777746059 | 11.67° C | 45% | 1018.9 hPa | 0 mm | - | - | - |
* Rain latest hour (hover to see other rain measurements)
** Current wind speed in m/s (hover to see current wind gust speed)